{"data":{"norad_id":68102,"intl_designator":"2026-044B","name":"STARLINK-37046","alt_names":[],"object_type":"PAYLOAD","status":"ACTIVE","operator":null,"country":"US","launch_date":"2026-03-08","launch_site_code":"AFWTR","launch_vehicle":null,"mission":null,"orbit_class":"UNKNOWN","rcs_meters":null,"size_class":null,"mass_kg":null,"dimensions":null,"purposes":["comms"],"wikipedia_slug":null,"has_3d_model":false,"image_url":null,"decayed_at":null,"tle_current":{"epoch":"2026-05-25T03:09:03.780000Z","epoch_age_seconds":63613,"freshness":"FRESH","line1":"1 68102U 26044B   26145.13129375  .00018358  00000+0  56949-3 0  9992","line2":"2 68102  97.2823 105.6950 0001584  98.6777 261.4645 15.33450231 13298","mean_motion":15.33450231,"eccentricity":0.0001584,"inclination_deg":97.2823,"raan_deg":105.695,"arg_perigee_deg":98.6777,"mean_anomaly_deg":261.4645,"bstar":0.00056949,"rev_number":1329,"period_min":93.905884318198,"perigee_km":464.44357427235,"apogee_km":466.61164722104,"semimajor_km":6843.6646107467,"source":"CELESTRAK","updated_at":"2026-05-25T13:38:21.840639Z"}}}